This is the latest recevied weather packets stored in our database for station/object DB2AG-13. If no packets are shown the sender has not sent any weather packets the latest 10 day(s).
| Time | Temp. | Humidity | Pressure | Rain* | Wind** | Luminosity | Snow |
|---|---|---|---|---|---|---|---|
| 1787645290 | 22.22° C | 44% | 1018.9 hPa | - | - | - | - |
| 1787644762 | 22.22° C | 44% | 1018.8 hPa | - | - | - | - |
| 1787644229 | 22.22° C | 44% | 1018.8 hPa | - | - | - | - |
| 1787643158 | 22.22° C | 45% | 1018.8 hPa | - | - | - | - |
| 1787642618 | 21.67° C | 47% | 1018.7 hPa | - | - | - | - |
| 1787642082 | 21.67° C | 47% | 1018.7 hPa | - | - | - | - |
| 1787641545 | 21.11° C | 46% | 1018.8 hPa | - | - | - | - |
| 1787641009 | 21.67° C | 47% | 1018.7 hPa | - | - | - | - |
| 1787640471 | 21.67° C | 47% | 1018.6 hPa | - | - | - | - |
| 1787639930 | 21.67° C | 49% | 1018.6 hPa | - | - | - | - |
| 1787639388 | 21.67° C | 52% | 1018.5 hPa | - | - | - | - |
| 1787638843 | 21.11° C | 52% | 1018.6 hPa | - | - | - | - |
| 1787638306 | 20.56° C | 55% | 1018.6 hPa | - | - | - | - |
| 1787637766 | 20° C | 60% | 1018.7 hPa | - | - | - | - |
| 1787637224 | 18.33° C | 64% | 1018.6 hPa | - | - | - | - |
| 1787636687 | 16.67° C | 68% | 1018.6 hPa | - | - | - | - |
| 1787636145 | 15° C | 74% | 1018.5 hPa | - | - | - | - |
| 1787635605 | 12.22° C | 80% | 1018.5 hPa | - | - | - | - |
| 1787635063 | 8.89° C | 80% | 1018.6 hPa | - | - | - | - |
| 1787634517 | 8.33° C | 79% | 1018.8 hPa | - | - | - | - |
| 1787633973 | 7.78° C | 79% | 1018.7 hPa | - | - | - | - |
| 1787633427 | 7.78° C | 79% | 1018.8 hPa | - | - | - | - |
| 1787632885 | 7.78° C | 78% | 1018.9 hPa | - | - | - | - |
| 1787632338 | 7.22° C | 79% | 1018.9 hPa | - | - | - | - |
| 1787631794 | 7.22° C | 78% | 1019 hPa | - | - | - | - |
* Rain since midnight (hover to see other rain measurements)
** Current wind speed in m/s (hover to see current wind gust speed)